This demonstration page uses our WeatherBlox Daily Observations layout. Learn more.

Left ArrowRight Arrow

39.01783, -85.05884

Hourly Observations for September 28, 2022

Temp ( °F °C ) Dew Point ( °F °C ) Humidity (%) Winds ( mph kmh ) Pressure ( in mb ) Visibility ( mi km ) Precip ( " mm )
12:52 am 00:52 Clear 48 8.9 39 3.9 71 71 NNW 6 9 30.22 1024 10 16 0.00 0.00
1:52 am 01:52 Clear 47 8.3 39 3.9 74 74 NNW 6 9 30.22 1024 10 16 0.00 0.00
2:52 am 02:52 Clear 46 7.8 40 4.4 79 79 NW 5 7 30.23 1024 10 16 0.00 0.00
3:52 am 03:52 Clear 43 6.1 40 4.4 89 89 W 5 7 30.23 1024 10 16 0.00 0.00
4:52 am 04:52 Clear 41 5 39 3.9 93 93 W 5 7 30.24 1024 10 16 0.00 0.00
5:52 am 05:52 Mostly Cloudy 41 5 40 4.4 96 96 W 5 7 30.25 1025 10 16 0.00 0.00
6:41 am 06:41 Partly Cloudy 42 5.6 41 5 96 96 W 3 6 30.29 1026 10 16 0.00 0.00
6:52 am 06:52 Mostly Clear 41 5 41 5 100 100 W 5 7 30.27 1025 10 16 0.00 0.00
7:52 am 07:52 Partly Cloudy 41 5 41 5 100 100 WNW 7 11 30.29 1026 10 16 0.00 0.00
8:06 am 08:06 Mostly Cloudy 43 6.1 42 5.6 97 97 WNW 6 9 30.33 1027 10 16 0.00 0.00
8:39 am 08:39 Mostly Cloudy 45 7.2 43 6.1 93 93 Calm 30.32 1027 10 16 0.00 0.00
8:52 am 08:52 Mostly Cloudy 47 8.3 45 7.2 93 93 W 5 7 30.30 1026 10 16 0.00 0.00
9:52 am 09:52 Partly Cloudy 52 11.1 46 7.8 80 80 NNW 9 15 30.32 1027 10 16 0.00 0.00
10:52 am 10:52 Mostly Cloudy 56 13.3 45 7.2 66 66 N 13 20 30.35 1028 10 16 0.00 0.00
11:39 am 11:39 Partly Cloudy 56 13.3 45 7.2 66 66 N 9 15 30.37 1028 10 16 0.00 0.00
11:52 am 11:52 Cloudy 56 13.3 45 7.2 66 66 N 12 19 30.36 1028 10 16 0.00 0.00
12:52 pm 12:52 Cloudy 56 13.3 45 7.2 66 66 N 12 19 30.38 1029 10 16 0.00 0.00
1:24 pm 13:24 Cloudy 56 13.3 44 6.7 64 64 NNW 13 20 30.38 1029 10 16 0.00 0.00
1:38 pm 13:38 Cloudy 56 13.3 44 6.7 64 64 N 14 22 30.38 1029 10 16 0.00 0.00
1:52 pm 13:52 Cloudy 57 13.9 43 6.1 59 59 N 10 17 30.38 1029 10 16 0.00 0.00
2:52 pm 14:52 Cloudy 59 15 44 6.7 58 58 NNE 10 17 30.37 1028 10 16 0.00 0.00
3:52 pm 15:52 Cloudy 59 15 43 6.1 55 55 NNE 12 19 30.37 1028 10 16 0.00 0.00
4:52 pm 16:52 Cloudy 58 14.4 44 6.7 60 60 N 10 17 30.37 1029 10 16 0.00 0.00
5:52 pm 17:52 Mostly Cloudy 59 15 43 6.1 55 55 N 13 20 30.37 1028 10 16 0.00 0.00
6:52 pm 18:52 Mostly Cloudy 58 14.4 42 5.6 55 55 N 13 20 30.38 1029 10 16 0.00 0.00
7:52 pm 19:52 Mostly Cloudy 57 13.9 43 6.1 59 59 NNE 6 9 30.40 1029 10 16 0.00 0.00
8:52 pm 20:52 Mostly Cloudy 56 13.3 43 6.1 62 62 NE 9 15 30.40 1030 10 16 0.00 0.00
9:52 pm 21:52 Cloudy 56 13.3 44 6.7 64 64 NE 7 11 30.42 1030 10 16 0.00 0.00
10:52 pm 22:52 Mostly Cloudy 56 13.3 44 6.7 64 64 NNE 8 13 30.42 1030 10 16 0.00 0.00
11:52 pm 23:52 Mostly Cloudy 54 12.2 43 6.1 66 66 NNE 9 15 30.43 1030 10 16 0.00 0.00

Powered by AerisWeather